This is the latest recevied weather packets stored in our database for station/object VE3MJM-WX. If no packets are shown the sender has not sent any weather packets the latest 10 day(s).
| Time | Temp. | Humidity | Pressure | Rain* | Wind** | Luminosity | Snow |
|---|---|---|---|---|---|---|---|
| 1777718451 | 0° C | 83% | 1011.4 hPa | 0 mm | - | - | - |
| 1777717548 | -0.56° C | 84% | 1011.5 hPa | 0 mm | - | - | - |
| 1777716646 | 0° C | 83% | 1010.9 hPa | 0 mm | - | - | - |
| 1777715743 | 0° C | 82% | 1010.9 hPa | 0 mm | - | - | - |
| 1777714840 | 0° C | 84% | 1011 hPa | 0 mm | - | - | - |
| 1777713938 | 0.56° C | 85% | 1011 hPa | 0 mm | - | - | - |
| 1777713035 | 0.56° C | 84% | 1010.5 hPa | 0 mm | - | - | - |
| 1777712133 | 0.56° C | 83% | 1010.7 hPa | 0 mm | - | - | - |
| 1777711230 | 0.56° C | 84% | 1010.8 hPa | 0 mm | - | - | - |
| 1777710328 | 0.56° C | 83% | 1010.5 hPa | 0 mm | - | - | - |
| 1777709425 | 0.56° C | 84% | 1010.5 hPa | 0 mm | - | - | - |
| 1777708523 | 0.56° C | 85% | 1010.6 hPa | 0 mm | - | - | - |
| 1777707620 | 0.56° C | 87% | 1010.6 hPa | 0 mm | - | - | - |
| 1777706718 | 0.56° C | 85% | 1010.5 hPa | 0 mm | - | - | - |
| 1777705815 | 0.56° C | 85% | 1010.4 hPa | 0 mm | - | - | - |
| 1777704912 | 0° C | 86% | 1010.5 hPa | 0 mm | - | - | - |
| 1777704010 | -0.56° C | 88% | 1010.7 hPa | 0 mm | - | - | - |
| 1777703107 | -0.56° C | 87% | 1011 hPa | 0 mm | - | - | - |
| 1777702205 | 0.56° C | 83% | 1010.7 hPa | 0 mm | - | - | - |
| 1777701302 | 0.56° C | 81% | 1011.1 hPa | 0 mm | - | - | - |
| 1777700400 | 0.56° C | 78% | 1010.9 hPa | 0 mm | - | - | - |
| 1777699497 | 0.56° C | 79% | 1011.1 hPa | 0 mm | - | - | - |
| 1777698595 | 0.56° C | 80% | 1011.1 hPa | 0 mm | - | - | - |
| 1777697692 | 1.11° C | 77% | 1011 hPa | 0 mm | - | - | - |
| 1777696789 | 1.11° C | 77% | 1010.9 hPa | 0 mm | - | - | - |
* Rain latest hour (hover to see other rain measurements)
** Current wind speed in m/s (hover to see current wind gust speed)